Terminal Aerodrome Forecast
Issued by NWS

Home | Current Version | Previous Version | Text Only | Print | Product List | Glossary On
Versions: 1 2 3 4 5 6 7 8 9 10 11 12
000
FTUS45 KRIW 182300
TAFCPR
TAF
KCPR 182336Z 1900/1924 23014KT P6SM SCT080 BKN100
     FM190600 23014KT P6SM SCT120
     FM191600 23018G25KT P6SM SCT100 BKN150=

USA.gov is the U.S. government's official web portal to all federal, state and local government web resources and services.